| time (UTC) | temp F | wind direction | speed knots | gust knots | rain 1hr in | rain 24hr in | rain mn in | humidity % | barometer mb |
| 20260901030202 | 54 | 255 | 0.0 | 0.0 | 0.00 | 0.01 | 0.01 | 93 | 1017.0 |
| 20260901025203 | 54 | 255 | 0.0 | 0.0 | 0.00 | 0.01 | 0.01 | 93 | 1017.0 |
| 20260901024202 | 54 | 255 | 0.0 | 0.0 | 0.00 | 0.01 | 0.01 | 92 | 1017.2 |
| 20260901023203 | 55 | 255 | 0.0 | 0.0 | 0.00 | 0.01 | 0.01 | 92 | 1017.2 |
| 20260901022203 | 55 | 255 | 0.0 | 0.0 | 0.00 | 0.01 | 0.01 | 91 | 1017.1 |
| 20260901021202 | 55 | 254 | 0.0 | 0.9 | 0.00 | 0.01 | 0.01 | 91 | 1017.0 |
| 20260901020203 | 56 | 254 | 0.0 | 1.7 | 0.00 | 0.01 | 0.01 | 91 | 1017.0 |
| 20260901015203 | 56 | 254 | 0.0 | 0.9 | 0.00 | 0.01 | 0.01 | 91 | 1016.9 |
| 20260901014203 | 55 | 254 | 0.0 | 0.9 | 0.00 | 0.01 | 0.01 | 90 | 1016.9 |
| 20260901013203 | 56 | 255 | 0.0 | 0.0 | 0.00 | 0.01 | 0.01 | 90 | 1016.9 |
| 20260901012203 | 56 | 255 | 0.0 | 0.0 | 0.00 | 0.01 | 0.01 | 89 | 1017.0 |
| 20260901011203 | 56 | 255 | 0.0 | 0.9 | 0.00 | 0.01 | 0.01 | 89 | 1017.0 |
| 20260901010203 | 56 | 255 | 0.0 | 0.9 | 0.00 | 0.01 | 0.01 | 88 | 1016.9 |
| 20260901005203 | 57 | 255 | 0.0 | 0.9 | 0.00 | 0.01 | 0.01 | 87 | 1016.9 |
| 20260901004203 | 57 | 254 | 0.0 | 0.9 | 0.00 | 0.01 | 0.01 | 87 | 1017.0 |
| 20260901003223 | 57 | 255 | 0.0 | 0.0 | 0.00 | 0.01 | 0.01 | 85 | 1016.9 |
| 20260901002224 | 58 | 255 | 0.0 | 0.0 | 0.00 | 0.01 | 0.01 | 84 | 1016.8 |
| 20260901001203 | 59 | 255 | 0.0 | 1.7 | 0.00 | 0.01 | 0.01 | 82 | 1016.8 |
| 20260901000225 | 60 | 254 | 0.0 | 3.5 | 0.00 | 0.01 | 0.01 | 81 | 1016.7 |
| 20260831235245 | 60 | 254 | 1.7 | 6.1 | 0.00 | 0.01 | 0.01 | 81 | 1016.8 |
| 20260831234245 | 61 | 253 | 2.6 | 6.1 | 0.00 | 0.01 | 0.01 | 81 | 1016.9 |
| 20260831233202 | 61 | 235 | 2.6 | 4.3 | 0.00 | 0.01 | 0.01 | 80 | 1016.9 |
| 20260831232203 | 61 | 235 | 0.0 | 2.6 | 0.00 | 0.01 | 0.01 | 79 | 1016.7 |
| 20260831231203 | 62 | 235 | 0.9 | 3.5 | 0.00 | 0.01 | 0.01 | 79 | 1016.8 |
| 20260831230203 | 62 | 220 | 0.9 | 3.5 | 0.00 | 0.01 | 0.01 | 79 | 1016.7 |
| 20260831224202 | 63 | 152 | 0.9 | 6.1 | 0.00 | 0.01 | 0.01 | 78 | 1016.6 |
| 20260831223203 | 64 | 281 | 2.6 | 6.1 | 0.00 | 0.01 | 0.01 | 77 | 1016.6 |
| 20260831222203 | 64 | 165 | 1.7 | 7.8 | 0.00 | 0.01 | 0.01 | 77 | 1016.6 |
| 20260831221203 | 64 | 174 | 1.7 | 6.1 | 0.00 | 0.01 | 0.01 | 76 | 1016.8 |
| 20260831220203 | 65 | 197 | 2.6 | 7.0 | 0.00 | 0.01 | 0.01 | 74 | 1016.9 |
| 20260831215203 | 65 | 197 | 2.6 | 9.6 | 0.00 | 0.01 | 0.01 | 72 | 1016.8 |
| 20260831214203 | 66 | 185 | 4.3 | 7.8 | 0.00 | 0.01 | 0.01 | 73 | 1017.0 |
| 20260831213203 | 66 | 161 | 1.7 | 7.8 | 0.00 | 0.01 | 0.01 | 72 | 1016.9 |
| 20260831212223 | 67 | 187 | 6.1 | 11.3 | 0.00 | 0.01 | 0.01 | 70 | 1017.2 |
| 20260831211203 | 68 | 203 | 4.3 | 10.4 | 0.00 | 0.01 | 0.01 | 68 | 1017.1 |
| 20260831210204 | 69 | 174 | 3.5 | 8.7 | 0.00 | 0.01 | 0.01 | 65 | 1017.1 |
| 20260831205245 | 69 | 196 | 3.5 | 11.3 | 0.00 | 0.01 | 0.01 | 64 | 1017.0 |
| 20260831204203 | 70 | 206 | 2.6 | 11.3 | 0.00 | 0.01 | 0.01 | 57 | 1017.0 |
| 20260831203203 | 72 | 188 | 5.2 | 8.7 | 0.00 | 0.01 | 0.01 | 49 | 1016.8 |
| 20260831202223 | 73 | 186 | 3.5 | 7.8 | 0.00 | 0.01 | 0.01 | 48 | 1016.9 |
| 20260831201224 | 72 | 184 | 3.5 | 8.7 | 0.00 | 0.01 | 0.01 | 48 | 1016.9 |
| 20260831200203 | 73 | 193 | 3.5 | 8.7 | 0.00 | 0.01 | 0.01 | 47 | 1017.0 |
| 20260831195202 | 73 | 196 | 3.5 | 9.6 | 0.00 | 0.01 | 0.01 | 48 | 1017.0 |
| 20260831194203 | 73 | 183 | 4.3 | 8.7 | 0.00 | 0.01 | 0.01 | 49 | 1017.1 |
| 20260831193202 | 73 | 185 | 4.3 | 7.8 | 0.00 | 0.01 | 0.01 | 52 | 1017.0 |
| 20260831192224 | 73 | 176 | 5.2 | 10.4 | 0.00 | 0.01 | 0.01 | 54 | 1017.0 |
| 20260831190203 | 73 | 169 | 3.5 | 8.7 | 0.00 | 0.01 | 0.01 | 59 | 1017.2 |
| 20260831185203 | 75 | 174 | 2.6 | 6.1 | 0.00 | 0.01 | 0.01 | 48 | 1017.2 |
| 20260831184203 | 76 | 184 | 4.3 | 6.1 | 0.00 | 0.01 | 0.01 | 47 | 1017.2 |
| 20260831183202 | 74 | 179 | 4.3 | 7.8 | 0.00 | 0.01 | 0.01 | 50 | 1017.3 |
| 20260831182225 | 75 | 194 | 1.7 | 8.7 | 0.00 | 0.01 | 0.01 | 50 | 1017.4 |
| 20260831181203 | 74 | 176 | 3.5 | 8.7 | 0.00 | 0.01 | 0.01 | 50 | 1017.6 |
| 20260831180202 | 74 | 184 | 4.3 | 7.8 | 0.00 | 0.01 | 0.01 | 58 | 1017.6 |
| 20260831175203 | 75 | 176 | 1.7 | 4.3 | 0.00 | 0.01 | 0.01 | 55 | 1017.6 |
| 20260831174203 | 74 | 188 | 3.5 | 6.1 | 0.00 | 0.01 | 0.01 | 51 | 1017.8 |
| 20260831173203 | 75 | 159 | 1.7 | 5.2 | 0.00 | 0.01 | 0.01 | 49 | 1017.6 |
| 20260831172224 | 75 | 195 | 1.7 | 7.8 | 0.00 | 0.01 | 0.01 | 51 | 1017.6 |
| 20260831171202 | 74 | 188 | 3.5 | 7.8 | 0.00 | 0.01 | 0.01 | 51 | 1017.7 |
| 20260831170203 | 73 | 289 | 1.7 | 7.0 | 0.00 | 0.01 | 0.01 | 49 | 1017.9 |
| 20260831165202 | 75 | 295 | 2.6 | 7.0 | 0.00 | 0.01 | 0.01 | 46 | 1018.0 |
| 20260831164203 | 73 | 332 | 1.7 | 8.7 | 0.00 | 0.01 | 0.01 | 47 | 1018.0 |
| 20260831163225 | 74 | 339 | 0.9 | 3.5 | 0.00 | 0.01 | 0.01 | 48 | 1018.2 |
| 20260831162202 | 72 | 330 | 0.9 | 7.8 | 0.00 | 0.01 | 0.01 | 47 | 1018.4 |
| 20260831161224 | 71 | 61 | 2.6 | 5.2 | 0.00 | 0.01 | 0.01 | 52 | 1018.3 |
| 20260831160203 | 72 | 41 | 1.7 | 7.8 | 0.00 | 0.01 | 0.01 | 52 | 1018.4 |
| 20260831155203 | 72 | 55 | 1.7 | 6.1 | 0.00 | 0.01 | 0.01 | 52 | 1018.4 |
| 20260831154224 | 71 | 20 | 1.7 | 6.1 | 0.00 | 0.01 | 0.01 | 57 | 1018.4 |
| 20260831153202 | 71 | 338 | 1.7 | 8.7 | 0.00 | 0.01 | 0.01 | 56 | 1018.5 |
| 20260831152204 | 70 | 291 | 2.6 | 7.0 | 0.00 | 0.01 | 0.01 | 58 | 1018.6 |
| 20260831151224 | 70 | 273 | 1.7 | 5.2 | 0.00 | 0.01 | 0.01 | 60 | 1018.7 |
| 20260831150224 | 70 | 283 | 0.9 | 7.0 | 0.00 | 0.01 | 0.01 | 59 | 1018.8 |
| 20260831145202 | 68 | 75 | 1.7 | 6.1 | 0.00 | 0.01 | 0.01 | 65 | 1018.9 |
| 20260831144203 | 67 | 321 | 2.6 | 7.0 | 0.00 | 0.01 | 0.01 | 63 | 1018.8 |
| 20260831143203 | 68 | 286 | 2.6 | 7.0 | 0.00 | 0.01 | 0.01 | 63 | 1019.0 |
| 20260831142203 | 67 | 320 | 2.6 | 4.3 | 0.00 | 0.01 | 0.01 | 67 | 1019.0 |
| 20260831141203 | 67 | 40 | 1.7 | 5.2 | 0.00 | 0.01 | 0.01 | 68 | 1019.1 |
| 20260831140202 | 66 | 285 | 3.5 | 7.0 | 0.00 | 0.01 | 0.01 | 68 | 1019.0 |
| 20260831135224 | 66 | 283 | 2.6 | 9.6 | 0.00 | 0.01 | 0.01 | 71 | 1018.9 |
| 20260831133202 | 64 | 305 | 2.6 | 5.2 | 0.00 | 0.01 | 0.01 | 75 | 1018.5 |
| 20260831132203 | 62 | 320 | 1.7 | 7.8 | 0.00 | 0.01 | 0.01 | 77 | 1018.4 |
| 20260831131203 | 61 | 340 | 1.7 | 7.8 | 0.00 | 0.01 | 0.01 | 80 | 1018.4 |
| 20260831130224 | 61 | 326 | 1.7 | 7.8 | 0.00 | 0.01 | 0.01 | 80 | 1018.3 |
| 20260831125203 | 60 | 325 | 3.5 | 8.7 | 0.00 | 0.01 | 0.01 | 82 | 1018.3 |
| 20260831124202 | 60 | 317 | 1.7 | 5.2 | 0.00 | 0.01 | 0.01 | 85 | 1018.2 |
| 20260831123224 | 59 | 316 | 1.7 | 7.0 | 0.00 | 0.01 | 0.01 | 87 | 1018.2 |
| 20260831122202 | 59 | 315 | 0.9 | 5.2 | 0.00 | 0.01 | 0.01 | 88 | 1018.3 |
| 20260831121203 | 58 | 315 | 0.9 | 4.3 | 0.00 | 0.01 | 0.01 | 90 | 1018.4 |
| 20260831120202 | 58 | 314 | 1.7 | 5.2 | 0.00 | 0.01 | 0.01 | 91 | 1018.3 |
| 20260831115203 | 57 | 314 | 1.7 | 4.3 | 0.00 | 0.01 | 0.01 | 92 | 1018.5 |
| 20260831114203 | 56 | 314 | 1.7 | 5.2 | 0.00 | 0.01 | 0.01 | 94 | 1018.5 |
| 20260831113202 | 56 | 313 | 1.7 | 4.3 | 0.00 | 0.01 | 0.01 | 94 | 1018.4 |
| 20260831112203 | 55 | 313 | 0.9 | 4.3 | 0.00 | 0.01 | 0.01 | 95 | 1018.5 |
| 20260831111203 | 55 | 313 | 0.9 | 3.5 | 0.00 | 0.01 | 0.01 | 95 | 1018.3 |
| 20260831110203 | 54 | 313 | 1.7 | 4.3 | 0.00 | 0.01 | 0.01 | 95 | 1018.2 |
| 20260831105203 | 54 | 313 | 0.9 | 4.3 | 0.00 | 0.01 | 0.01 | 95 | 1018.0 |
| 20260831104202 | 53 | 313 | 0.9 | 2.6 | 0.00 | 0.01 | 0.01 | 95 | 1018.0 |
| 20260831103203 | 53 | 313 | 1.7 | 3.5 | 0.00 | 0.01 | 0.01 | 95 | 1017.9 |
| 20260831102203 | 53 | 313 | 0.9 | 2.6 | 0.00 | 0.01 | 0.01 | 95 | 1017.7 |
| 20260831101202 | 53 | 313 | 0.9 | 2.6 | 0.00 | 0.01 | 0.01 | 95 | 1017.6 |
| 20260831100203 | 53 | 313 | 0.9 | 2.6 | 0.00 | 0.01 | 0.01 | 95 | 1017.6 |
| 20260831095202 | 53 | 313 | 0.9 | 2.6 | 0.00 | 0.01 | 0.01 | 95 | 1017.5 |
| 20260831094203 | 54 | 313 | 0.9 | 3.5 | 0.00 | 0.01 | 0.01 | 95 | 1017.2 |
| 20260831093202 | 54 | 313 | 1.7 | 3.5 | 0.00 | 0.01 | 0.01 | 95 | 1017.0 |
| 20260831092203 | 54 | 313 | 1.7 | 3.5 | 0.00 | 0.01 | 0.01 | 95 | 1016.8 |
| 20260831091202 | 54 | 313 | 1.7 | 4.3 | 0.00 | 0.01 | 0.01 | 95 | 1016.7 |
| 20260831090203 | 54 | 313 | 0.9 | 3.5 | 0.00 | 0.01 | 0.01 | 95 | 1016.5 |
| 20260831085202 | 55 | 313 | 0.9 | 4.3 | 0.00 | 0.01 | 0.01 | 95 | 1016.3 |
| 20260831084203 | 55 | 313 | 0.0 | 2.6 | 0.00 | 0.01 | 0.01 | 94 | 1016.2 |
| 20260831083202 | 55 | 314 | 0.9 | 2.6 | 0.00 | 0.01 | 0.01 | 95 | 1016.2 |
| 20260831082203 | 55 | 314 | 0.0 | 1.7 | 0.00 | 0.01 | 0.01 | 95 | 1016.1 |
| 20260831081224 | 55 | 314 | 0.0 | 0.9 | 0.00 | 0.01 | 0.01 | 95 | 1016.2 |
| 20260831080202 | 56 | 313 | 0.0 | 2.6 | 0.00 | 0.01 | 0.01 | 95 | 1016.2 |
| 20260831075203 | 56 | 314 | 0.9 | 3.5 | 0.00 | 0.01 | 0.01 | 95 | 1016.3 |
| 20260831074224 | 56 | 314 | 1.7 | 2.6 | 0.00 | 0.01 | 0.01 | 94 | 1016.3 |
| 20260831073203 | 56 | 314 | 0.9 | 4.3 | 0.00 | 0.01 | 0.01 | 94 | 1016.2 |
| 20260831072203 | 56 | 314 | 0.9 | 3.5 | 0.00 | 0.01 | 0.01 | 95 | 1016.2 |
| 20260831071202 | 56 | 313 | 2.6 | 4.3 | 0.00 | 0.01 | 0.01 | 95 | 1016.1 |
| 20260831070203 | 57 | 313 | 1.7 | 4.3 | 0.00 | 0.01 | 0.01 | 94 | 1016.1 |
| 20260831065203 | 57 | 313 | 1.7 | 4.3 | 0.00 | 0.01 | 0.01 | 94 | 1015.9 |
| 20260831064202 | 57 | 324 | 0.9 | 4.3 | 0.00 | 0.01 | 0.01 | 94 | 1015.9 |
| 20260831063203 | 57 | 324 | 0.9 | 4.3 | 0.00 | 0.01 | 0.01 | 94 | 1015.9 |
| 20260831062202 | 57 | 324 | 0.9 | 3.5 | 0.00 | 0.01 | 0.01 | 94 | 1015.7 |
| 20260831061203 | 58 | 324 | 1.7 | 5.2 | 0.00 | 0.01 | 0.01 | 94 | 1015.7 |
| 20260831060202 | 58 | 324 | 1.7 | 5.2 | 0.00 | 0.01 | 0.01 | 94 | 1015.5 |
| 20260831055224 | 58 | 322 | 0.0 | 4.3 | 0.00 | 0.01 | 0.01 | 94 | 1015.4 |
| 20260831054202 | 58 | 322 | 1.7 | 4.3 | 0.00 | 0.01 | 0.01 | 94 | 1015.3 |
| 20260831053203 | 58 | 322 | 0.0 | 3.5 | 0.00 | 0.01 | 0.01 | 94 | 1015.3 |
| 20260831052245 | 58 | 322 | 0.9 | 3.5 | 0.00 | 0.01 | 0.01 | 94 | 1015.3 |
| 20260831051202 | 58 | 322 | 0.0 | 2.6 | 0.00 | 0.01 | 0.01 | 94 | 1015.2 |
| 20260831050203 | 58 | 322 | 0.0 | 2.6 | 0.00 | 0.01 | 0.01 | 94 | 1015.0 |
| 20260831045202 | 58 | 322 | 0.9 | 2.6 | 0.01 | 0.01 | 0.01 | 94 | 1015.1 |
| 20260831044203 | 59 | 322 | 0.0 | 1.7 | 0.01 | 0.01 | 0.01 | 94 | 1015.0 |
| 20260831043202 | 59 | 322 | 0.9 | 2.6 | 0.00 | 0.00 | 0.00 | 94 | 1014.9 |
| 20260831042203 | 59 | 322 | 0.0 | 1.7 | 0.00 | 0.00 | 0.00 | 94 | 1014.9 |
| 20260831041202 | 59 | 322 | 0.0 | 2.6 | 0.00 | 0.00 | 0.00 | 94 | 1014.9 |
| 20260831040203 | 60 | 323 | 0.0 | 1.7 | 0.00 | 0.00 | 0.00 | 93 | 1014.7 |
| 20260831035224 | 60 | 323 | 0.0 | 2.6 | 0.00 | 0.00 | 0.00 | 93 | 1014.7 |
| 20260831034203 | 60 | 322 | 0.0 | 2.6 | 0.00 | 0.00 | 0.00 | 93 | 1014.6 |
| 20260831033203 | 60 | 322 | 1.7 | 3.5 | 0.00 | 0.00 | 0.00 | 93 | 1014.7 |
| 20260831032202 | 60 | 322 | 0.9 | 2.6 | 0.00 | 0.00 | 0.00 | 93 | 1014.4 |
| 20260831031203 | 60 | 322 | 0.9 | 4.3 | 0.00 | 0.00 | 0.00 | 92 | 1014.4 |